RH
100 97 94 91 82 66 54 50 45 38 32 31 34 34 34 28 34 35 36 39 40 38 37 36 35 33 33
100 100 100 90 82 70 51 44 39 35 33 35 38 37 33 32 37 38 39 40 40 40 38 31 29 31 35
100 100 97 95 84 76 59 46 39 36 37 39 40 38 32 35 37 42 41 42 41 35 21 17 15 25 24
100 98 99 100 97 82 71 48 42 42 44 43 39 34 33 37 42 45 44 40 32 20 14 18 16 13 10
99 100 98 98 99 96 77 50 46 50 46 38 34 37 41 40 46 45 30 32 30 25 27 28 41 36 30
98 98 100 98 99 96 75 52 53 52 42 35 39 46 44 45 41 31 34 41 44 46 41 41 46 45 45
98 99 92 94 99 91 84 55 51 50 37 40 50 48 45 35 28 29 36 43 43 46 49 48 46 48 44
99 98 98 97 94 96 75 58 56 50 43 50 50 42 33 34 38 44 47 51 51 48 38 39 37 31 35
83 86 100 96 99 99 75 58 61 51 53 54 42 36 40 44 47 52 57 61 62 63 58 40 33 25 28
100 98 100 98 99 98 74 64 66 55 57 51 38 40 46 50 54 62 65 65 66 70 69 57 44 24 19
84 92 88 98 91 95 79 72 69 58 61 45 37 44 50 54 62 62 64 68 72 77 74 62 54 39 46
84 89 97 98 97 92 88 80 72 63 63 46 37 48 52 59 62 64 67 62 82 93 88 78 70 61 46
96 95 96 97 97 95 93 84 76 69 62 42 45 54 55 64 64 68 50 38 42 53 58 57 50 48 65
97 97 97 97 97 98 97 96 84 83 63 41 56 56 59 66 63 56 50 38 48 55 43 37 44 62 62
96 97 97 97 96 97 97 97 97 95 85 46 57 59 64 67 64 53 49 46 38 44 49 46 33 41 62
99 97 95 96 97 97 97 97 97 96 96 52 55 64 70 63 56 55 63 50 39 36 34 31 32 34 64
96 96 97 97 96 96 96 97 97 97 84 41 51 66 76 69 57 61 80 51 40 36 32 29 28 35 67
Wind_Speed
35 32 33 29 28 29 28 27 27 27 27 28 28 29 29 27 26 27 25 23 21 21 19 19 19 20 18
36 34 32 32 31 28 27 27 27 27 28 30 29 28 30 26 27 24 24 21 20 18 17 17 18 18 16
38 36 37 35 30 28 27 27 27 27 29 30 31 29 28 27 25 21 21 18 17 16 15 15 16 15 13
39 43 40 31 31 26 27 27 27 27 29 30 29 28 26 26 22 19 17 15 14 15 14 14 14 10 9
41 46 47 36 26 26 28 27 26 26 29 29 28 26 24 24 20 16 13 13 14 13 12 12 10 8 9
42 45 43 43 30 22 26 28 27 27 29 28 25 25 23 20 17 15 13 14 15 15 13 15 14 12 14
46 30 37 32 24 21 27 28 27 27 27 26 23 24 21 18 16 16 15 12 14 16 18 17 16 16 15
33 33 29 32 23 26 30 29 26 26 25 24 23 22 19 17 15 17 16 15 15 14 13 13 14 14 11
47 42 31 30 30 31 30 28 27 25 25 23 23 21 20 17 17 17 15 14 14 15 14 12 11 12 9
34 41 33 36 31 33 31 29 27 25 24 22 23 22 19 17 17 16 16 16 16 15 15 12 12 11 10
49 47 40 33 36 35 32 30 27 27 26 24 24 22 20 18 17 16 15 15 15 13 12 12 13 12 10
49 44 43 40 40 38 36 32 30 29 28 26 25 22 21 20 17 16 14 12 10 10 12 12 12 12 12
47 42 43 43 43 40 38 35 32 31 28 27 27 24 22 20 17 15 13 12 11 10 12 14 15 15 14
41 36 36 38 42 43 42 38 33 31 29 29 29 26 24 23 20 18 14 13 13 12 11 8 8 12 18
30 31 33 33 35 40 42 41 35 33 30 31 31 29 26 26 24 21 18 16 17 17 16 14 12 11 13
31 31 30 29 32 36 42 42 38 35 32 33 33 31 28 28 25 23 20 19 18 18 17 15 14 13 13
28 28 29 28 30 31 31 40 36 33 33 35 35 33 30 28 26 26 23 21 19 18 17 16 15 14 14
Wind_Direction
260 259 266 272 277 286 288 285 285 285 285 286 289 292 292 292 297 296 297 293 290 288 291 291 289 286 284
257 262 268 272 276 284 289 286 285 288 289 287 289 293 291 289 290 294 292 292 290 289 289 289 289 287 279
250 255 261 267 272 279 284 283 284 286 287 289 288 286 285 286 288 288 286 285 285 286 285 285 285 283 281
248 256 256 256 261 273 276 277 281 285 286 286 287 283 282 284 285 281 280 279 282 284 281 279 277 286 291
251 260 254 251 257 267 274 276 279 283 284 283 282 280 280 279 275 269 266 274 276 274 273 270 277 291 291
272 262 272 262 256 257 274 278 279 280 283 283 278 275 274 267 261 253 256 266 269 267 267 265 276 286 290
266 264 275 262 259 269 270 268 273 281 283 277 271 266 259 252 250 252 260 265 263 265 262 265 272 279 289
257 258 261 256 265 267 265 268 273 276 274 268 261 256 246 244 248 257 258 261 260 265 264 262 273 279 270
261 263 255 262 260 262 261 262 266 270 267 256 252 243 238 242 255 255 250 251 258 263 266 261 269 276 267
246 243 253 255 253 257 254 259 263 263 256 250 244 239 238 243 252 246 251 257 258 256 255 256 257 257 261
257 257 251 251 254 253 252 253 256 256 249 243 236 234 235 242 242 247 251 254 248 245 251 249 247 247 245
258 254 252 248 248 250 247 251 251 248 245 242 233 229 235 233 233 244 241 239 237 234 242 244 244 242 240
254 254 253 249 250 247 240 243 244 242 239 234 225 227 228 225 228 233 236 236 237 245 251 252 249 244 244
261 257 254 249 246 242 236 237 237 235 234 229 225 224 220 221 227 234 234 236 235 236 242 260 272 257 246
254 254 257 254 249 244 237 232 225 224 226 226 223 220 219 222 228 234 234 237 239 244 253 265 271 280 258
255 255 253 253 250 247 242 233 229 220 216 222 221 218 221 223 226 232 236 241 245 252 259 264 270 279 267
256 257 254 254 250 249 246 240 216 215 216 221 218 219 221 224 228 231 235 243 246 253 260 265 269 278 274